SVMI

Simón Bolívar International Airport

Airport
ICAO code
SVMI
IATA Code
CCS
Summary
ICAO Region
CARSAM
ICAO Territory
Location

Maiquetia, Vargas

Serving
Caracas
Elevation
235 ft
Coordinates
10° 36' 11" N , 66° 59' 26" W
KCC
Metar
SVMI 151700Z 07004KT 9999 FEW016 31/27 Q1013

Simón Bolívar International Airport or Maiquetía "Simón Bolívar" International Airport is an international airport located in Maiquetía, Vargas, Venezuela about 12 nm from downtown Caracas, the capital of the country. Simply called Maiquetía by the local population, it is the main international air passenger gateway to Venezuela.

Climatology

Tropical savanna climate (Köppen climate classification Aw)

Runways

Designator Length Width Surface Rops
9/27 3027 44 ASP Yes/Yes
10/28 3500 45 ASP Yes/Yes

Airport map

Aerial View

Airport accidents

SKYbrary Partners:

Safety knowledge contributed by: